Time,TemperatureF,DewpointF,PressureIn,WindDirection,WindDirectionDegrees,WindSpeedMPH,WindSpeedGustMPH,Humidity,HourlyPrecipIn,Conditions,Clouds,dailyrainin,SoftwareType,DateUTC
2013-04-26 00:01:00,31.6,26.2,30.30,North,0,0.0,0.0,80,0.00,,,0.07,meteohub,2013-04-26 04:01:00,
2013-04-26 00:03:00,31.6,26.2,30.30,North,0,0.0,0.0,80,0.00,,,0.07,meteohub,2013-04-26 04:03:00,
2013-04-26 00:04:00,31.6,26.2,30.30,North,0,0.0,0.0,80,0.00,,,0.07,meteohub,2013-04-26 04:04:00,
2013-04-26 00:07:00,31.6,26.2,30.30,North,0,0.0,0.0,80,0.00,,,0.00,meteohub,2013-04-26 04:07:00,
2013-04-26 00:12:00,31.3,25.9,30.30,North,0,0.0,0.0,80,0.00,,,0.00,meteohub,2013-04-26 04:12:00,
2013-04-26 00:17:00,31.1,25.7,30.30,North,0,0.0,0.0,80,0.00,,,0.00,meteohub,2013-04-26 04:17:00,
2013-04-26 00:22:00,31.1,25.9,30.31,North,0,0.0,0.0,81,0.00,,,0.00,meteohub,2013-04-26 04:22:00,
2013-04-26 00:27:00,31.1,25.9,30.31,North,0,0.0,0.0,81,0.00,,,0.00,meteohub,2013-04-26 04:27:00,
2013-04-26 00:33:00,31.1,25.9,30.31,North,0,0.0,0.0,81,0.00,,,0.00,meteohub,2013-04-26 04:33:00,
2013-04-26 00:38:00,31.1,25.9,30.31,North,0,0.0,0.0,81,0.00,,,0.00,meteohub,2013-04-26 04:38:00,
2013-04-26 00:43:00,30.7,25.9,30.31,North,0,0.0,0.0,82,0.00,,,0.00,meteohub,2013-04-26 04:43:00,
2013-04-26 00:48:00,30.7,25.9,30.31,North,0,0.0,0.0,82,0.00,,,0.00,meteohub,2013-04-26 04:48:00,
2013-04-26 00:53:00,30.6,25.7,30.31,North,0,0.0,0.0,82,0.00,,,0.00,meteohub,2013-04-26 04:53:00,
2013-04-26 00:58:00,30.6,25.7,30.31,North,0,0.0,0.0,82,0.00,,,0.00,meteohub,2013-04-26 04:58:00,
2013-04-26 01:03:00,30.6,26.1,30.32,North,0,0.0,0.0,83,0.00,,,0.00,meteohub,2013-04-26 05:03:00,
2013-04-26 01:08:00,30.4,25.9,30.32,North,0,0.0,0.0,83,0.00,,,0.00,meteohub,2013-04-26 05:08:00,
2013-04-26 01:13:00,30.4,25.9,30.32,North,0,0.0,0.0,83,0.00,,,0.00,meteohub,2013-04-26 05:13:00,
2013-04-26 01:18:00,30.2,25.7,30.32,North,0,0.0,0.0,83,0.00,,,0.00,meteohub,2013-04-26 05:18:00,
2013-04-26 01:24:00,30.0,25.7,30.32,North,0,0.0,0.0,84,0.00,,,0.00,meteohub,2013-04-26 05:24:00,
2013-04-26 01:29:00,30.0,25.7,30.32,North,0,0.0,0.0,84,0.00,,,0.00,meteohub,2013-04-26 05:29:00,
2013-04-26 01:34:00,30.0,25.7,30.32,North,0,0.0,0.0,84,0.00,,,0.00,meteohub,2013-04-26 05:34:00,
2013-04-26 01:39:00,29.8,25.5,30.32,North,0,0.0,0.0,84,0.00,,,0.00,meteohub,2013-04-26 05:39:00,
2013-04-26 01:44:00,29.7,25.7,30.32,North,0,0.0,0.0,85,0.00,,,0.00,meteohub,2013-04-26 05:44:00,
2013-04-26 01:49:00,29.7,25.7,30.32,North,0,0.0,0.0,85,0.00,,,0.00,meteohub,2013-04-26 05:49:00,
2013-04-26 01:54:00,29.5,25.5,30.32,North,0,0.0,0.0,85,0.00,,,0.00,meteohub,2013-04-26 05:54:00,
2013-04-26 01:59:00,29.5,25.5,30.33,North,0,0.0,0.0,85,0.00,,,0.00,meteohub,2013-04-26 05:59:00,
2013-04-26 02:04:00,29.5,25.5,30.33,North,0,0.0,0.0,85,0.00,,,0.00,meteohub,2013-04-26 06:04:00,
2013-04-26 02:09:00,29.5,25.5,30.33,North,0,0.0,0.0,85,0.00,,,0.00,meteohub,2013-04-26 06:09:00,
2013-04-26 02:15:00,29.3,25.3,30.33,North,0,0.0,0.0,85,0.00,,,0.00,meteohub,2013-04-26 06:15:00,
2013-04-26 02:20:00,29.3,25.3,30.33,North,0,0.0,0.0,85,0.00,,,0.00,meteohub,2013-04-26 06:20:00,
2013-04-26 02:25:00,29.3,25.3,30.33,North,0,0.0,0.0,85,0.00,,,0.00,meteohub,2013-04-26 06:25:00,
2013-04-26 02:30:00,29.1,25.2,30.33,North,0,0.0,0.0,85,0.00,,,0.00,meteohub,2013-04-26 06:30:00,
2013-04-26 02:35:00,29.1,25.2,30.33,North,0,0.0,0.0,85,0.00,,,0.00,meteohub,2013-04-26 06:35:00,
2013-04-26 02:40:00,28.9,25.0,30.33,North,0,0.0,0.0,85,0.00,,,0.00,meteohub,2013-04-26 06:40:00,
2013-04-26 02:45:00,28.9,25.0,30.32,North,0,0.0,0.0,85,0.00,,,0.00,meteohub,2013-04-26 06:45:00,
2013-04-26 02:50:00,28.8,24.8,30.32,North,0,0.0,0.0,85,0.00,,,0.00,meteohub,2013-04-26 06:50:00,
2013-04-26 02:55:00,28.8,24.8,30.32,North,0,0.0,0.0,85,0.00,,,0.00,meteohub,2013-04-26 06:55:00,
2013-04-26 03:01:00,28.8,24.8,30.32,North,0,0.0,0.0,85,0.00,,,0.00,meteohub,2013-04-26 07:01:00,
2013-04-26 03:06:00,28.8,24.8,30.32,North,0,0.0,0.0,85,0.00,,,0.00,meteohub,2013-04-26 07:06:00,
2013-04-26 03:11:00,28.8,24.8,30.32,North,0,0.0,0.0,85,0.00,,,0.00,meteohub,2013-04-26 07:11:00,
2013-04-26 03:16:00,28.8,24.8,30.32,North,0,0.0,0.0,85,0.00,,,0.00,meteohub,2013-04-26 07:16:00,
2013-04-26 03:21:00,28.8,24.8,30.32,North,0,0.0,0.0,85,0.00,,,0.00,meteohub,2013-04-26 07:21:00,
2013-04-26 03:26:00,28.6,24.6,30.32,North,0,0.0,0.0,85,0.00,,,0.00,meteohub,2013-04-26 07:26:00,
2013-04-26 03:31:00,28.6,24.6,30.32,North,0,0.0,0.0,85,0.00,,,0.00,meteohub,2013-04-26 07:31:00,
2013-04-26 03:36:00,28.4,24.4,30.32,North,0,0.0,0.0,85,0.00,,,0.00,meteohub,2013-04-26 07:36:00,
2013-04-26 03:41:00,28.4,24.4,30.32,North,0,0.0,0.0,85,0.00,,,0.00,meteohub,2013-04-26 07:41:00,
2013-04-26 03:46:00,28.4,24.4,30.32,North,0,0.0,0.0,85,0.00,,,0.00,meteohub,2013-04-26 07:46:00,
2013-04-26 03:52:00,28.2,23.2,30.32,North,0,0.0,0.0,81,0.00,,,0.00,meteohub,2013-04-26 07:52:00,
2013-04-26 03:57:00,28.0,23.0,30.33,North,0,0.0,0.0,81,0.00,,,0.00,meteohub,2013-04-26 07:57:00,
2013-04-26 04:02:00,28.0,23.0,30.33,North,0,0.0,0.0,81,0.00,,,0.00,meteohub,2013-04-26 08:02:00,
2013-04-26 04:07:00,28.0,23.0,30.33,North,0,0.0,0.0,81,0.00,,,0.00,meteohub,2013-04-26 08:07:00,
2013-04-26 04:12:00,27.9,22.8,30.33,North,0,0.0,0.0,81,0.00,,,0.00,meteohub,2013-04-26 08:12:00,
2013-04-26 04:17:00,27.9,22.8,30.33,North,0,0.0,0.0,81,0.00,,,0.00,meteohub,2013-04-26 08:17:00,
2013-04-26 04:22:00,27.9,23.0,30.33,North,0,0.0,0.0,82,0.00,,,0.00,meteohub,2013-04-26 08:22:00,
2013-04-26 04:27:00,27.7,22.8,30.33,North,0,0.0,0.0,82,0.00,,,0.00,meteohub,2013-04-26 08:27:00,
2013-04-26 04:32:00,27.7,22.8,30.33,North,0,0.0,0.0,82,0.00,,,0.00,meteohub,2013-04-26 08:32:00,
2013-04-26 04:37:00,27.7,22.8,30.33,North,0,0.0,0.0,82,0.00,,,0.00,meteohub,2013-04-26 08:37:00,
2013-04-26 04:42:00,27.7,22.8,30.34,North,0,0.0,0.0,82,0.00,,,0.00,meteohub,2013-04-26 08:42:00,
2013-04-26 04:47:00,27.7,22.8,30.34,North,0,0.0,0.0,82,0.00,,,0.00,meteohub,2013-04-26 08:47:00,
2013-04-26 04:52:00,27.5,22.8,30.34,North,0,0.0,0.0,82,0.00,,,0.00,meteohub,2013-04-26 08:52:00,
2013-04-26 04:57:00,27.5,22.8,30.34,North,0,0.0,0.0,82,0.00,,,0.00,meteohub,2013-04-26 08:57:00,
2013-04-26 05:02:00,27.3,22.6,30.34,North,0,0.0,0.0,82,0.00,,,0.00,meteohub,2013-04-26 09:02:00,
2013-04-26 05:07:00,27.3,22.6,30.34,North,0,0.0,0.0,82,0.00,,,0.00,meteohub,2013-04-26 09:07:00,
2013-04-26 05:12:00,27.3,22.6,30.34,North,0,0.0,0.0,82,0.00,,,0.00,meteohub,2013-04-26 09:12:00,
2013-04-26 05:17:00,27.1,22.5,30.34,North,0,0.0,0.0,82,0.00,,,0.00,meteohub,2013-04-26 09:17:00,
2013-04-26 05:22:00,27.1,22.5,30.34,North,0,0.0,0.0,82,0.00,,,0.00,meteohub,2013-04-26 09:22:00,
2013-04-26 05:27:00,27.1,22.5,30.34,North,0,0.0,0.0,82,0.00,,,0.00,meteohub,2013-04-26 09:27:00,
2013-04-26 05:32:00,27.1,22.5,30.34,North,0,0.0,0.0,82,0.00,,,0.00,meteohub,2013-04-26 09:32:00,
2013-04-26 05:37:00,27.1,22.5,30.35,North,0,0.0,0.0,82,0.00,,,0.00,meteohub,2013-04-26 09:37:00,
2013-04-26 05:42:00,27.0,22.3,30.35,North,0,0.0,0.0,82,0.00,,,0.00,meteohub,2013-04-26 09:42:00,
2013-04-26 05:47:00,27.0,22.3,30.35,North,0,0.0,0.0,82,0.00,,,0.00,meteohub,2013-04-26 09:47:00,
2013-04-26 05:52:00,27.0,22.3,30.35,North,0,0.0,0.0,82,0.00,,,0.00,meteohub,2013-04-26 09:52:00,
2013-04-26 05:57:00,27.0,22.3,30.35,East,90,0.0,0.0,82,0.00,,,0.00,meteohub,2013-04-26 09:57:00,
2013-04-26 06:02:00,27.0,22.3,30.35,East,90,0.0,0.0,82,0.00,,,0.00,meteohub,2013-04-26 10:02:00,
2013-04-26 06:07:00,27.0,22.3,30.35,East,90,0.0,0.0,82,0.00,,,0.00,meteohub,2013-04-26 10:07:00,
2013-04-26 06:12:00,26.8,22.1,30.35,East,90,0.0,0.0,82,0.00,,,0.00,meteohub,2013-04-26 10:12:00,
2013-04-26 06:17:00,26.8,22.1,30.35,East,90,0.0,0.0,82,0.00,,,0.00,meteohub,2013-04-26 10:17:00,
2013-04-26 06:22:00,26.8,22.1,30.35,East,90,0.0,0.0,82,0.00,,,0.00,meteohub,2013-04-26 10:22:00,
2013-04-26 06:27:00,26.8,22.1,30.35,East,90,0.0,0.0,82,0.00,,,0.00,meteohub,2013-04-26 10:27:00,
2013-04-26 06:32:00,26.8,22.1,30.35,East,90,0.0,0.0,82,0.00,,,0.00,meteohub,2013-04-26 10:32:00,
2013-04-26 06:37:00,26.6,21.9,30.35,East,90,0.0,0.0,82,0.00,,,0.00,meteohub,2013-04-26 10:37:00,
2013-04-26 06:42:00,26.6,21.9,30.35,East,90,0.0,0.0,82,0.00,,,0.00,meteohub,2013-04-26 10:42:00,
2013-04-26 06:47:00,26.6,21.9,30.36,East,90,0.0,0.0,82,0.00,,,0.00,meteohub,2013-04-26 10:47:00,
2013-04-26 06:52:00,26.6,21.9,30.36,East,90,0.0,0.0,82,0.00,,,0.00,meteohub,2013-04-26 10:52:00,
2013-04-26 06:57:00,26.8,22.1,30.36,East,90,0.0,0.0,82,0.00,,,0.00,meteohub,2013-04-26 10:57:00,
2013-04-26 07:02:00,27.0,22.3,30.36,East,90,0.0,0.0,82,0.00,,,0.00,meteohub,2013-04-26 11:02:00,
2013-04-26 07:08:00,27.0,22.3,30.36,East,90,0.0,0.0,82,0.00,,,0.00,meteohub,2013-04-26 11:08:00,
2013-04-26 07:13:00,27.1,22.5,30.36,East,90,0.0,0.0,82,0.00,,,0.00,meteohub,2013-04-26 11:13:00,
2013-04-26 07:18:00,27.3,22.6,30.37,East,90,0.0,0.0,82,0.00,,,0.00,meteohub,2013-04-26 11:18:00,
2013-04-26 07:23:00,27.5,22.8,30.37,East,90,0.0,0.0,82,0.00,,,0.00,meteohub,2013-04-26 11:23:00,
2013-04-26 07:28:00,27.9,23.0,30.37,East,90,0.0,0.0,82,0.00,,,0.00,meteohub,2013-04-26 11:28:00,
2013-04-26 07:33:00,28.0,23.5,30.37,East,90,0.0,0.0,83,0.00,,,0.00,meteohub,2013-04-26 11:33:00,
2013-04-26 07:38:00,28.2,23.7,30.38,North,0,0.0,0.0,83,0.00,,,0.00,meteohub,2013-04-26 11:38:00,
2013-04-26 07:43:00,28.6,25.2,30.37,North,0,0.0,0.0,87,0.00,,,0.00,meteohub,2013-04-26 11:43:00,
2013-04-26 07:48:00,28.8,25.3,30.38,North,0,0.0,0.0,87,0.00,,,0.00,meteohub,2013-04-26 11:48:00,
2013-04-26 07:53:00,29.3,25.9,30.38,North,0,0.0,0.0,87,0.00,,,0.00,meteohub,2013-04-26 11:53:00,
2013-04-26 07:59:00,29.7,26.2,30.38,North,0,0.0,0.0,87,0.00,,,0.00,meteohub,2013-04-26 11:59:00,
2013-04-26 08:04:00,30.0,26.6,30.38,North,0,0.0,0.0,87,0.00,,,0.00,meteohub,2013-04-26 12:04:00,
2013-04-26 08:09:00,30.6,27.1,30.38,North,0,0.0,0.0,87,0.00,,,0.00,meteohub,2013-04-26 12:09:00,
2013-04-26 08:14:00,31.3,27.9,30.38,North,0,0.0,0.0,87,0.00,,,0.00,meteohub,2013-04-26 12:14:00,
2013-04-26 08:19:00,32.0,28.2,30.38,North,0,0.0,0.0,86,0.00,,,0.00,meteohub,2013-04-26 12:19:00,
2013-04-26 08:24:00,32.5,29.1,30.38,North,0,0.0,0.0,87,0.00,,,0.00,meteohub,2013-04-26 12:24:00,
2013-04-26 08:29:00,33.4,30.0,30.38,North,0,0.0,0.0,87,0.00,,,0.00,meteohub,2013-04-26 12:29:00,
2013-04-26 08:34:00,34.3,30.9,30.38,East,90,2.0,0.0,87,0.00,,,0.00,meteohub,2013-04-26 12:34:00,
2013-04-26 08:39:00,35.6,31.8,30.38,East,90,2.0,0.0,86,0.00,,,0.00,meteohub,2013-04-26 12:39:00,
2013-04-26 08:44:00,36.9,33.4,30.38,NW,315,0.0,2.0,87,0.00,,,0.00,meteohub,2013-04-26 12:44:00,
2013-04-26 08:50:00,37.9,35.8,30.39,NW,315,0.0,2.0,92,0.00,,,0.00,meteohub,2013-04-26 12:50:00,
2013-04-26 08:55:00,38.7,36.5,30.39,NW,315,0.0,2.0,92,0.00,,,0.00,meteohub,2013-04-26 12:55:00,
2013-04-26 09:00:00,39.9,37.6,30.39,South,180,0.0,1.0,91,0.00,,,0.00,meteohub,2013-04-26 13:00:00,
2013-04-26 09:05:00,41.0,37.9,30.39,North,0,1.0,0.0,89,0.00,,,0.00,meteohub,2013-04-26 13:05:00,
2013-04-26 09:10:00,42.1,38.5,30.39,SW,225,2.0,2.0,87,0.00,,,0.00,meteohub,2013-04-26 13:10:00,
2013-04-26 09:15:00,43.2,38.3,30.39,SW,225,0.0,3.0,83,0.00,,,0.00,meteohub,2013-04-26 13:15:00,
2013-04-26 09:20:00,44.1,38.3,30.39,South,180,3.0,3.0,80,0.00,,,0.00,meteohub,2013-04-26 13:20:00,
2013-04-26 09:25:00,44.8,37.0,30.39,SW,225,0.0,3.0,74,0.00,,,0.00,meteohub,2013-04-26 13:25:00,
2013-04-26 09:30:00,45.5,36.7,30.39,South,180,2.0,3.0,71,0.00,,,0.00,meteohub,2013-04-26 13:30:00,
2013-04-26 09:35:00,46.4,36.5,30.39,East,90,2.0,3.0,68,0.00,,,0.00,meteohub,2013-04-26 13:35:00,
2013-04-26 09:41:00,47.1,36.0,30.40,West,270,4.0,4.0,65,0.00,,,0.00,meteohub,2013-04-26 13:41:00,
2013-04-26 09:46:00,47.5,33.8,30.40,West,270,5.0,5.0,59,0.00,,,0.00,meteohub,2013-04-26 13:46:00,
2013-04-26 09:51:00,47.8,32.9,30.40,SW,225,4.0,8.0,56,0.00,,,0.00,meteohub,2013-04-26 13:51:00,
2013-04-26 09:56:00,48.4,32.5,30.40,South,180,3.0,8.0,54,0.00,,,0.00,meteohub,2013-04-26 13:56:00,
2013-04-26 10:01:00,48.9,33.1,30.40,West,270,2.0,8.0,54,0.00,,,0.00,meteohub,2013-04-26 14:01:00,
2013-04-26 10:06:00,49.5,33.4,30.40,West,270,6.0,6.0,54,0.00,,,0.00,meteohub,2013-04-26 14:06:00,
2013-04-26 10:11:00,49.8,32.4,30.40,SW,225,5.0,6.0,51,0.00,,,0.00,meteohub,2013-04-26 14:11:00,
2013-04-26 10:16:00,50.0,32.5,30.40,West,270,4.0,6.0,51,0.00,,,0.00,meteohub,2013-04-26 14:16:00,
2013-04-26 10:21:00,50.4,32.0,30.40,SW,225,6.0,6.0,49,0.00,,,0.00,meteohub,2013-04-26 14:21:00,
2013-04-26 10:27:00,50.9,33.4,30.40,SE,135,5.0,6.0,51,0.00,,,0.00,meteohub,2013-04-26 14:27:00,
2013-04-26 10:32:00,51.3,32.7,30.40,South,180,3.0,6.0,49,0.00,,,0.00,meteohub,2013-04-26 14:32:00,
2013-04-26 10:37:00,51.8,32.2,30.40,NW,315,4.0,8.0,47,0.00,,,0.00,meteohub,2013-04-26 14:37:00,
2013-04-26 10:42:00,51.8,30.6,30.40,SW,225,5.0,8.0,44,0.00,,,0.00,meteohub,2013-04-26 14:42:00,
2013-04-26 10:47:00,52.0,30.7,30.40,NE,45,2.0,8.0,44,0.00,,,0.00,meteohub,2013-04-26 14:47:00,
2013-04-26 10:52:00,52.5,31.3,30.40,SW,225,6.0,8.0,44,0.00,,,0.00,meteohub,2013-04-26 14:52:00,
2013-04-26 10:57:00,52.9,32.2,30.40,SW,225,4.0,7.0,45,0.00,,,0.00,meteohub,2013-04-26 14:57:00,
2013-04-26 11:02:00,53.1,31.1,30.40,SW,225,4.0,7.0,43,0.00,,,0.00,meteohub,2013-04-26 15:02:00,
2013-04-26 11:07:00,52.7,30.2,30.40,SW,225,4.0,6.0,42,0.00,,,0.00,meteohub,2013-04-26 15:07:00,
2013-04-26 11:12:00,52.3,29.3,30.40,SW,225,4.0,9.0,41,0.00,,,0.00,meteohub,2013-04-26 15:12:00,
2013-04-26 11:17:00,52.7,30.2,30.39,West,270,5.0,9.0,42,0.00,,,0.00,meteohub,2013-04-26 15:17:00,
2013-04-26 11:22:00,52.9,30.4,30.39,SW,225,8.0,9.0,42,0.00,,,0.00,meteohub,2013-04-26 15:22:00,
2013-04-26 11:27:00,52.5,30.0,30.39,West,270,4.0,11.0,42,0.00,,,0.00,meteohub,2013-04-26 15:27:00,
2013-04-26 11:32:00,52.7,30.2,30.39,WSW,248,4.0,11.0,42,0.00,,,0.00,meteohub,2013-04-26 15:32:00,
2013-04-26 11:37:00,52.7,30.7,30.39,SW,225,4.0,11.0,43,0.00,,,0.00,meteohub,2013-04-26 15:37:00,
2013-04-26 11:42:00,53.2,31.3,30.39,SW,225,7.0,8.0,43,0.00,,,0.00,meteohub,2013-04-26 15:42:00,
2013-04-26 11:47:00,53.6,30.4,30.40,SW,225,6.0,8.0,41,0.00,,,0.00,meteohub,2013-04-26 15:47:00,
2013-04-26 11:52:00,53.8,30.6,30.39,SE,135,3.0,9.0,41,0.00,,,0.00,meteohub,2013-04-26 15:52:00,
2013-04-26 11:57:00,54.3,31.6,30.40,SW,225,4.0,9.0,42,0.00,,,0.00,meteohub,2013-04-26 15:57:00,
2013-04-26 12:02:00,54.3,31.6,30.40,South,180,4.0,8.0,42,0.00,,,0.00,meteohub,2013-04-26 16:02:00,
2013-04-26 12:07:00,54.3,31.1,30.40,SW,225,6.0,7.0,41,0.00,,,0.00,meteohub,2013-04-26 16:07:00,
2013-04-26 12:12:00,54.3,31.6,30.39,West,270,4.0,8.0,42,0.00,,,0.00,meteohub,2013-04-26 16:12:00,
2013-04-26 12:17:00,54.1,30.9,30.40,South,180,3.0,8.0,41,0.00,,,0.00,meteohub,2013-04-26 16:17:00,
2013-04-26 12:22:00,54.1,30.9,30.40,SW,225,3.0,8.0,41,0.00,,,0.00,meteohub,2013-04-26 16:22:00,
2013-04-26 12:27:00,54.1,30.9,30.40,SW,225,8.0,10.0,41,0.00,,,0.00,meteohub,2013-04-26 16:27:00,
2013-04-26 12:32:00,54.3,31.6,30.39,West,270,7.0,10.0,42,0.00,,,0.00,meteohub,2013-04-26 16:32:00,
2013-04-26 12:37:00,54.9,32.2,30.39,WNW,293,4.0,10.0,42,0.00,,,0.00,meteohub,2013-04-26 16:37:00,
2013-04-26 12:42:00,55.0,31.8,30.39,NW,315,7.0,9.0,41,0.00,,,0.00,meteohub,2013-04-26 16:42:00,
2013-04-26 12:47:00,55.4,31.5,30.39,West,270,2.0,9.0,40,0.00,,,0.00,meteohub,2013-04-26 16:47:00,
2013-04-26 12:52:00,55.8,31.1,30.38,South,180,4.0,7.0,39,0.00,,,0.00,meteohub,2013-04-26 16:52:00,
2013-04-26 12:57:00,56.7,34.3,30.38,SW,225,4.0,7.0,43,0.00,,,0.00,meteohub,2013-04-26 16:57:00,
2013-04-26 13:02:00,56.5,32.4,30.38,ESE,113,4.0,8.0,40,0.00,,,0.00,meteohub,2013-04-26 17:02:00,
2013-04-26 13:07:00,56.8,32.7,30.38,NW,315,5.0,8.0,40,0.00,,,0.00,meteohub,2013-04-26 17:07:00,
2013-04-26 13:12:00,56.8,33.4,30.37,South,180,3.0,8.0,41,0.00,,,0.00,meteohub,2013-04-26 17:12:00,
2013-04-26 13:17:00,56.8,33.4,30.37,West,270,8.0,8.0,41,0.00,,,0.00,meteohub,2013-04-26 17:17:00,
2013-04-26 13:22:00,57.4,33.8,30.37,SW,225,5.0,8.0,41,0.00,,,0.00,meteohub,2013-04-26 17:22:00,
2013-04-26 13:27:00,57.6,32.7,30.37,SW,225,5.0,8.0,39,0.00,,,0.00,meteohub,2013-04-26 17:27:00,
2013-04-26 13:32:00,57.4,32.5,30.37,South,180,5.0,8.0,39,0.00,,,0.00,meteohub,2013-04-26 17:32:00,
2013-04-26 13:37:00,57.6,32.7,30.36,SW,225,11.0,11.0,39,0.00,,,0.00,meteohub,2013-04-26 17:37:00,
2013-04-26 13:42:00,57.6,32.7,30.36,SW,225,5.0,11.0,39,0.00,,,0.00,meteohub,2013-04-26 17:42:00,
2013-04-26 13:47:00,57.6,33.4,30.36,South,180,11.0,11.0,40,0.00,,,0.00,meteohub,2013-04-26 17:47:00,
2013-04-26 13:52:00,57.0,32.9,30.36,NW,315,6.0,11.0,40,0.00,,,0.00,meteohub,2013-04-26 17:52:00,
2013-04-26 13:57:00,57.0,32.9,30.35,South,180,11.0,11.0,40,0.00,,,0.00,meteohub,2013-04-26 17:57:00,
2013-04-26 14:03:00,56.8,34.0,30.36,South,180,7.0,11.0,42,0.00,,,0.00,meteohub,2013-04-26 18:03:00,
2013-04-26 14:08:00,57.2,31.1,30.36,SW,225,4.0,11.0,37,0.00,,,0.00,meteohub,2013-04-26 18:08:00,
2013-04-26 14:13:00,57.6,32.2,30.36,SW,225,4.0,11.0,38,0.00,,,0.00,meteohub,2013-04-26 18:13:00,
2013-04-26 14:18:00,58.3,34.7,30.36,South,180,11.0,11.0,41,0.00,,,0.00,meteohub,2013-04-26 18:18:00,
2013-04-26 14:23:00,58.5,34.9,30.36,South,180,5.0,11.0,41,0.00,,,0.00,meteohub,2013-04-26 18:23:00,
2013-04-26 14:28:00,58.8,35.8,30.36,South,180,12.0,12.0,42,0.00,,,0.00,meteohub,2013-04-26 18:28:00,
2013-04-26 14:33:00,59.2,34.9,30.35,SW,225,8.0,12.0,40,0.00,,,0.00,meteohub,2013-04-26 18:33:00,
2013-04-26 14:38:00,59.4,33.8,30.35,South,180,10.0,12.0,38,0.00,,,0.00,meteohub,2013-04-26 18:38:00,
2013-04-26 14:43:00,59.4,33.1,30.35,West,270,8.0,12.0,37,0.00,,,0.00,meteohub,2013-04-26 18:43:00,
2013-04-26 14:48:00,59.0,31.5,30.35,South,180,7.0,10.0,35,0.00,,,0.00,meteohub,2013-04-26 18:48:00,
2013-04-26 14:54:00,59.2,32.9,30.35,West,270,4.0,10.0,37,0.00,,,0.00,meteohub,2013-04-26 18:54:00,
2013-04-26 14:59:00,59.4,33.8,30.35,South,180,8.0,10.0,38,0.00,,,0.00,meteohub,2013-04-26 18:59:00,
2013-04-26 15:04:00,59.2,32.2,30.34,SW,225,7.0,10.0,36,0.00,,,0.00,meteohub,2013-04-26 19:04:00,
2013-04-26 15:09:00,59.2,32.9,30.34,South,180,4.0,10.0,37,0.00,,,0.00,meteohub,2013-04-26 19:09:00,
2013-04-26 15:14:00,59.7,35.4,30.34,South,180,6.0,9.0,40,0.00,,,0.00,meteohub,2013-04-26 19:14:00,
2013-04-26 15:19:00,60.1,34.3,30.34,West,270,8.0,9.0,38,0.00,,,0.00,meteohub,2013-04-26 19:19:00,
2013-04-26 15:24:00,59.5,34.0,30.33,NE,45,5.0,9.0,38,0.00,,,0.00,meteohub,2013-04-26 19:24:00,
2013-04-26 15:29:00,59.7,33.4,30.33,South,180,7.0,11.0,37,0.00,,,0.00,meteohub,2013-04-26 19:29:00,
2013-04-26 15:34:00,59.9,34.2,30.33,SW,225,4.0,11.0,38,0.00,,,0.00,meteohub,2013-04-26 19:34:00,
2013-04-26 15:40:00,59.9,32.9,30.32,South,180,4.0,11.0,36,0.00,,,0.00,meteohub,2013-04-26 19:40:00,
2013-04-26 15:45:00,59.5,32.5,30.33,SW,225,4.0,8.0,36,0.00,,,0.00,meteohub,2013-04-26 19:45:00,
2013-04-26 15:50:00,59.7,33.4,30.32,SW,225,4.0,8.0,37,0.00,,,0.00,meteohub,2013-04-26 19:50:00,
2013-04-26 15:55:00,59.5,32.5,30.33,SW,225,5.0,8.0,36,0.00,,,0.00,meteohub,2013-04-26 19:55:00,
2013-04-26 16:00:00,59.4,32.4,30.32,West,270,6.0,9.0,36,0.00,,,0.00,meteohub,2013-04-26 20:00:00,
2013-04-26 16:05:00,59.4,33.1,30.32,NW,315,6.0,9.0,37,0.00,,,0.00,meteohub,2013-04-26 20:05:00,
2013-04-26 16:10:00,59.5,32.5,30.32,SW,225,8.0,10.0,36,0.00,,,0.00,meteohub,2013-04-26 20:10:00,
2013-04-26 16:15:00,59.2,32.9,30.32,South,180,7.0,11.0,37,0.00,,,0.00,meteohub,2013-04-26 20:15:00,
2013-04-26 16:20:00,59.2,32.9,30.32,South,180,6.0,11.0,37,0.00,,,0.00,meteohub,2013-04-26 20:20:00,
2013-04-26 16:26:00,59.4,33.1,30.31,SW,225,4.0,9.0,37,0.00,,,0.00,meteohub,2013-04-26 20:26:00,
2013-04-26 16:31:00,59.9,34.2,30.31,South,180,7.0,9.0,38,0.00,,,0.00,meteohub,2013-04-26 20:31:00,
2013-04-26 16:36:00,59.9,33.6,30.31,SW,225,10.0,10.0,37,0.00,,,0.00,meteohub,2013-04-26 20:36:00,
2013-04-26 16:41:00,59.7,33.4,30.30,SW,225,4.0,10.0,37,0.00,,,0.00,meteohub,2013-04-26 20:41:00,
2013-04-26 16:46:00,60.1,34.3,30.30,SE,135,5.0,10.0,38,0.00,,,0.00,meteohub,2013-04-26 20:46:00,
2013-04-26 16:51:00,60.1,33.8,30.30,WNW,293,10.0,10.0,37,0.00,,,0.00,meteohub,2013-04-26 20:51:00,
2013-04-26 16:56:00,60.1,33.1,30.30,WNW,293,8.0,11.0,36,0.00,,,0.00,meteohub,2013-04-26 20:56:00,
2013-04-26 17:01:00,60.1,33.1,30.30,SW,225,7.0,11.0,36,0.00,,,0.00,meteohub,2013-04-26 21:01:00,
2013-04-26 17:06:00,60.3,33.3,30.30,South,180,4.0,11.0,36,0.00,,,0.00,meteohub,2013-04-26 21:06:00,
2013-04-26 17:12:00,60.3,33.3,30.30,SW,225,4.0,11.0,36,0.00,,,0.00,meteohub,2013-04-26 21:12:00,
2013-04-26 17:17:00,59.9,32.9,30.30,South,180,7.0,11.0,36,0.00,,,0.00,meteohub,2013-04-26 21:17:00,
2013-04-26 17:22:00,60.1,33.1,30.29,South,180,4.0,11.0,36,0.00,,,0.00,meteohub,2013-04-26 21:22:00,
2013-04-26 17:27:00,60.3,33.8,30.30,SW,225,5.0,8.0,37,0.00,,,0.00,meteohub,2013-04-26 21:27:00,
2013-04-26 17:32:00,60.3,33.3,30.30,West,270,7.0,10.0,36,0.00,,,0.00,meteohub,2013-04-26 21:32:00,
2013-04-26 17:37:00,60.4,34.7,30.30,SW,225,8.0,10.0,38,0.00,,,0.00,meteohub,2013-04-26 21:37:00,
2013-04-26 17:42:00,59.7,32.7,30.30,SW,225,4.0,10.0,36,0.00,,,0.00,meteohub,2013-04-26 21:42:00,
2013-04-26 17:47:00,59.2,33.6,30.30,NW,315,4.0,9.0,38,0.00,,,0.00,meteohub,2013-04-26 21:47:00,
2013-04-26 17:52:00,59.0,33.4,30.30,SW,225,4.0,10.0,38,0.00,,,0.00,meteohub,2013-04-26 21:52:00,
2013-04-26 17:57:00,58.8,34.0,30.30,SW,225,2.0,10.0,39,0.00,,,0.00,meteohub,2013-04-26 21:57:00,
2013-04-26 18:02:00,59.2,32.9,30.30,South,180,6.0,10.0,37,0.00,,,0.00,meteohub,2013-04-26 22:02:00,
2013-04-26 18:07:00,59.4,33.1,30.30,South,180,8.0,8.0,37,0.00,,,0.00,meteohub,2013-04-26 22:07:00,
2013-04-26 18:12:00,59.4,33.1,30.30,NW,315,3.0,8.0,37,0.00,,,0.00,meteohub,2013-04-26 22:12:00,
2013-04-26 18:17:00,59.2,34.2,30.30,NE,45,4.0,8.0,39,0.00,,,0.00,meteohub,2013-04-26 22:17:00,
2013-04-26 18:22:00,59.2,33.6,30.30,SW,225,4.0,8.0,38,0.00,,,0.00,meteohub,2013-04-26 22:22:00,
2013-04-26 18:27:00,59.2,33.6,30.30,SSW,203,4.0,5.0,38,0.00,,,0.00,meteohub,2013-04-26 22:27:00,
2013-04-26 18:32:00,59.2,33.6,30.30,West,270,3.0,6.0,38,0.00,,,0.00,meteohub,2013-04-26 22:32:00,
2013-04-26 18:37:00,59.5,34.0,30.30,South,180,5.0,6.0,38,0.00,,,0.00,meteohub,2013-04-26 22:37:00,
2013-04-26 18:42:00,59.5,34.0,30.30,South,180,10.0,10.0,38,0.00,,,0.00,meteohub,2013-04-26 22:42:00,
2013-04-26 18:47:00,59.4,33.1,30.30,SW,225,5.0,10.0,37,0.00,,,0.00,meteohub,2013-04-26 22:47:00,
2013-04-26 18:52:00,59.2,33.6,30.30,SW,225,4.0,10.0,38,0.00,,,0.00,meteohub,2013-04-26 22:52:00,
2013-04-26 18:57:00,59.0,33.4,30.30,North,0,5.0,10.0,38,0.00,,,0.00,meteohub,2013-04-26 22:57:00,
2013-04-26 19:02:00,58.8,34.0,30.30,South,180,9.0,9.0,39,0.00,,,0.00,meteohub,2013-04-26 23:02:00,
2013-04-26 19:07:00,58.5,33.6,30.30,SW,225,2.0,9.0,39,0.00,,,0.00,meteohub,2013-04-26 23:07:00,
2013-04-26 19:12:00,58.1,33.3,30.30,SW,225,4.0,9.0,39,0.00,,,0.00,meteohub,2013-04-26 23:12:00,
2013-04-26 19:17:00,57.9,33.1,30.30,South,180,6.0,9.0,39,0.00,,,0.00,meteohub,2013-04-26 23:17:00,
2013-04-26 19:22:00,57.6,32.7,30.30,South,180,4.0,7.0,39,0.00,,,0.00,meteohub,2013-04-26 23:22:00,
2013-04-26 19:27:00,57.4,33.8,30.30,North,0,4.0,6.0,41,0.00,,,0.00,meteohub,2013-04-26 23:27:00,
2013-04-26 19:32:00,57.4,33.8,30.30,SW,225,2.0,6.0,41,0.00,,,0.00,meteohub,2013-04-26 23:32:00,
2013-04-26 19:37:00,57.4,33.8,30.30,South,180,4.0,6.0,41,0.00,,,0.00,meteohub,2013-04-26 23:37:00,
2013-04-26 19:42:00,57.4,35.1,30.29,South,180,5.0,6.0,43,0.00,,,0.00,meteohub,2013-04-26 23:42:00,
2013-04-26 19:47:00,57.4,34.5,30.29,South,180,5.0,5.0,42,0.00,,,0.00,meteohub,2013-04-26 23:47:00,
2013-04-26 19:52:00,57.2,34.9,30.29,SE,135,3.0,5.0,43,0.00,,,0.00,meteohub,2013-04-26 23:52:00,
2013-04-26 20:06:00,57.0,34.7,30.29,SW,225,3.0,5.0,43,0.00,,,0.00,meteohub,2013-04-27 00:06:00,
2013-04-26 20:11:00,56.3,35.2,30.29,South,180,2.0,6.0,45,0.00,,,0.00,meteohub,2013-04-27 00:11:00,
2013-04-26 20:16:00,56.3,35.2,30.29,SW,225,4.0,6.0,45,0.00,,,0.00,meteohub,2013-04-27 00:16:00,
2013-04-26 20:21:00,56.1,35.1,30.29,SW,225,2.0,6.0,45,0.00,,,0.00,meteohub,2013-04-27 00:21:00,
2013-04-26 20:27:00,55.8,34.7,30.29,SW,225,2.0,4.0,45,0.00,,,0.00,meteohub,2013-04-27 00:27:00,
2013-04-26 20:32:00,55.6,34.5,30.30,SW,225,2.0,4.0,45,0.00,,,0.00,meteohub,2013-04-27 00:32:00,
2013-04-26 20:37:00,55.2,34.2,30.30,SE,135,2.0,3.0,45,0.00,,,0.00,meteohub,2013-04-27 00:37:00,
2013-04-26 20:42:00,55.0,34.2,30.30,South,180,2.0,3.0,45,0.00,,,0.00,meteohub,2013-04-27 00:42:00,
2013-04-26 20:47:00,54.9,34.0,30.30,NNW,338,2.0,2.0,45,0.00,,,0.00,meteohub,2013-04-27 00:47:00,
2013-04-26 20:52:00,54.7,33.8,30.30,South,180,2.0,4.0,45,0.00,,,0.00,meteohub,2013-04-27 00:52:00,
2013-04-26 20:57:00,54.1,33.8,30.30,South,180,2.0,4.0,46,0.00,,,0.00,meteohub,2013-04-27 00:57:00,
2013-04-26 21:02:00,54.0,34.2,30.31,SW,225,2.0,4.0,47,0.00,,,0.00,meteohub,2013-04-27 01:02:00,
2013-04-26 21:07:00,54.0,33.6,30.30,West,270,4.0,4.0,46,0.00,,,0.00,meteohub,2013-04-27 01:07:00,
2013-04-26 21:12:00,53.6,34.3,30.31,SW,225,2.0,4.0,48,0.00,,,0.00,meteohub,2013-04-27 01:12:00,
2013-04-26 21:17:00,53.4,34.7,30.31,SW,225,0.0,4.0,49,0.00,,,0.00,meteohub,2013-04-27 01:17:00,
2013-04-26 21:22:00,53.2,34.5,30.31,South,180,2.0,4.0,49,0.00,,,0.00,meteohub,2013-04-27 01:22:00,
2013-04-26 21:27:00,53.1,34.3,30.31,South,180,1.0,3.0,49,0.00,,,0.00,meteohub,2013-04-27 01:27:00,
2013-04-26 21:32:00,52.9,35.2,30.31,South,180,2.0,3.0,51,0.00,,,0.00,meteohub,2013-04-27 01:32:00,
2013-04-26 21:37:00,52.9,35.2,30.32,South,180,2.0,3.0,51,0.00,,,0.00,meteohub,2013-04-27 01:37:00,
2013-04-26 21:42:00,52.0,34.9,30.32,South,180,0.0,2.0,52,0.00,,,0.00,meteohub,2013-04-27 01:42:00,
2013-04-26 21:47:00,51.6,35.6,30.31,South,180,0.0,2.0,54,0.00,,,0.00,meteohub,2013-04-27 01:47:00,
2013-04-26 21:52:00,51.1,36.0,30.32,South,180,0.0,2.0,56,0.00,,,0.00,meteohub,2013-04-27 01:52:00,
2013-04-26 21:57:00,50.7,36.0,30.31,SW,225,0.0,2.0,57,0.00,,,0.00,meteohub,2013-04-27 01:57:00,
2013-04-26 22:02:00,50.5,36.0,30.31,South,180,2.0,2.0,57,0.00,,,0.00,meteohub,2013-04-27 02:02:00,
2013-04-26 22:07:00,50.5,36.0,30.32,South,180,2.0,2.0,57,0.00,,,0.00,meteohub,2013-04-27 02:07:00,
2013-04-26 22:12:00,50.0,36.7,30.32,South,180,2.0,2.0,60,0.00,,,0.00,meteohub,2013-04-27 02:12:00,
2013-04-26 22:17:00,49.6,37.6,30.32,South,180,0.0,2.0,63,0.00,,,0.00,meteohub,2013-04-27 02:17:00,
2013-04-26 22:22:00,49.5,37.8,30.32,South,180,2.0,2.0,64,0.00,,,0.00,meteohub,2013-04-27 02:22:00,
2013-04-26 22:27:00,49.1,37.4,30.32,South,180,2.0,2.0,64,0.00,,,0.00,meteohub,2013-04-27 02:27:00,
2013-04-26 22:32:00,48.9,37.8,30.32,SW,225,2.0,2.0,65,0.00,,,0.00,meteohub,2013-04-27 02:32:00,
2013-04-26 22:37:00,48.7,37.6,30.32,South,180,1.0,2.0,65,0.00,,,0.00,meteohub,2013-04-27 02:37:00,
2013-04-26 22:42:00,48.4,37.2,30.32,South,180,0.0,2.0,65,0.00,,,0.00,meteohub,2013-04-27 02:42:00,
2013-04-26 22:47:00,48.2,37.0,30.32,South,180,0.0,2.0,65,0.00,,,0.00,meteohub,2013-04-27 02:47:00,
2013-04-26 22:52:00,47.8,37.4,30.32,South,180,0.0,1.0,67,0.00,,,0.00,meteohub,2013-04-27 02:52:00,
2013-04-26 22:57:00,47.3,37.2,30.32,South,180,0.0,0.0,68,0.00,,,0.00,meteohub,2013-04-27 02:57:00,
2013-04-26 23:02:00,46.2,37.0,30.32,South,180,0.0,0.0,70,0.00,,,0.00,meteohub,2013-04-27 03:02:00,
2013-04-26 23:07:00,45.7,36.9,30.32,South,180,0.0,0.0,71,0.00,,,0.00,meteohub,2013-04-27 03:07:00,
2013-04-26 23:12:00,45.1,36.3,30.32,South,180,0.0,0.0,71,0.00,,,0.00,meteohub,2013-04-27 03:12:00,
2013-04-26 23:17:00,44.6,36.1,30.32,South,180,0.0,0.0,72,0.00,,,0.00,meteohub,2013-04-27 03:17:00,
2013-04-26 23:22:00,44.1,36.0,30.32,North,0,0.0,0.0,73,0.00,,,0.00,meteohub,2013-04-27 03:22:00,
2013-04-26 23:27:00,43.5,35.4,30.32,North,0,0.0,0.0,73,0.00,,,0.00,meteohub,2013-04-27 03:27:00,
2013-04-26 23:32:00,43.2,35.4,30.32,North,0,0.0,0.0,74,0.00,,,0.00,meteohub,2013-04-27 03:32:00,
2013-04-26 23:37:00,43.0,35.6,30.32,North,0,0.0,0.0,75,0.00,,,0.00,meteohub,2013-04-27 03:37:00,
2013-04-26 23:42:00,42.6,36.0,30.32,North,0,0.0,0.0,77,0.00,,,0.00,meteohub,2013-04-27 03:42:00,
2013-04-26 23:47:00,42.4,35.8,30.32,North,0,0.0,0.0,77,0.00,,,0.00,meteohub,2013-04-27 03:47:00,
2013-04-26 23:52:00,42.3,36.0,30.32,North,0,0.0,0.0,78,0.00,,,0.00,meteohub,2013-04-27 03:52:00,
2013-04-26 23:57:00,41.9,35.2,30.32,North,0,0.0,0.0,77,0.00,,,0.00,meteohub,2013-04-27 03:57:00,